FW4092 Weather Reports


Display with metric or nautical units.
time (UTC)temp
F
wind
direction
speed
MPH
gust
MPH
rain 1hr
in
rain 24hr
in
rain mn
in
humidity
%
barometer
mb
20260503032749 60 294 3.0 4.0 0.00 0.01 0.01 61 1011.4
20260503032248 60 290 3.0 5.0 0.00 0.01 0.01 61 1011.3
20260503031749 61 302 3.0 6.0 0.00 0.01 0.01 61 1011.3
20260503031249 61 303 3.0 6.0 0.00 0.01 0.01 61 1011.1
20260503030749 61 301 3.0 7.0 0.00 0.01 0.01 60 1011.1
20260503030249 61 287 2.0 7.0 0.00 0.01 0.01 61 1011.0
20260503025749 61 298 2.0 4.0 0.00 0.01 0.01 60 1011.1
20260503025259 62 305 1.0 3.0 0.00 0.01 0.01 60 1011.1
20260503025025 62 304 2.0 4.0 0.00 0.01 0.01 59 1011.1
20260503024247 62 309 2.0 6.0 0.00 0.01 0.01 59 1011.1
20260503023746 62 324 3.0 6.0 0.00 0.01 0.01 58 1010.8
20260503023247 62 332 3.0 9.0 0.00 0.01 0.01 58 1010.8
20260503022745 63 317 4.0 9.0 0.00 0.01 0.01 57 1010.8
20260503022246 63 314 4.0 11.0 0.00 0.01 0.01 58 1010.7
20260503021741 63 332 3.0 11.0 0.00 0.01 0.01 57 1010.7
20260503021242 63 342 3.0 10.0 0.00 0.01 0.01 58 1010.7
20260503020741 63 15 4.0 10.0 0.00 0.01 0.01 58 1010.7
20260503020523 63 315 3.0 9.0 0.00 0.01 0.01 57 1010.5
20260503015741 63 355 3.0 9.0 0.00 0.01 0.01 59 1010.5
20260503015301 63 338 4.0 11.0 0.00 0.01 0.01 59 1010.6
20260503014749 62 15 5.0 15.0 0.00 0.01 0.01 58 1010.4
20260503014248 63 342 5.0 15.0 0.01 0.01 0.01 59 1010.5
20260503013741 63 349 7.0 14.0 0.01 0.01 0.01 59 1010.4
20260503013237 63 355 7.0 14.0 0.01 0.01 0.01 58 1010.3
20260503012731 63 331 7.0 13.0 0.01 0.01 0.01 58 1010.2
20260503012226 63 305 8.0 16.0 0.01 0.01 0.01 58 1010.3
20260503011959 63 344 7.0 16.0 0.01 0.01 0.01 57 1010.3
20260503011215 63 355 6.0 13.0 0.01 0.01 0.01 60 1010.3
20260503010708 63 348 7.0 13.0 0.01 0.01 0.01 60 1010.5
20260503010203 63 355 6.0 12.0 0.01 0.01 0.01 60 1010.5
20260503005659 63 348 5.0 12.0 0.01 0.01 0.01 61 1010.3
20260503005148 63 355 5.0 11.0 0.01 0.01 0.01 61 1010.2
20260503004641 64 28 3.0 10.0 0.01 0.01 0.01 61 1010.3
20260503004135 64 351 4.0 10.0 0.00 0.00 0.00 55 1011.0
20260503003632 65 26 4.0 12.0 0.00 0.00 0.00 53 1011.1
20260503003123 65 291 6.0 17.0 0.00 0.00 0.00 47 1011.3
20260503002614 66 277 8.0 17.0 0.00 0.00 0.00 52 1011.9
20260503002111 67 215 7.0 16.0 0.00 0.00 0.00 47 1011.1
20260503001610 67 209 7.0 16.0 0.00 0.00 0.00 44 1010.8
20260503001110 69 257 6.0 12.0 0.00 0.00 0.00 41 1010.7
20260503000610 70 205 6.0 14.0 0.00 0.00 0.00 38 1010.5
20260503000110 73 216 4.0 14.0 0.00 0.00 0.00 34 1010.6
20260502235610 74 229 3.0 8.0 0.00 0.00 0.00 30 1010.4
20260502235109 74 321 4.0 10.0 0.00 0.00 0.00 31 1009.8
20260502234607 74 319 5.0 10.0 0.00 0.00 0.00 30 1009.6
20260502234106 74 329 5.0 13.0 0.00 0.00 0.00 30 1009.4
20260502233607 74 336 6.0 13.0 0.00 0.00 0.00 30 1009.5
20260502233113 74 30 6.0 14.0 0.00 0.00 0.00 29 1009.5
20260502232605 75 9 6.0 14.0 0.00 0.00 0.00 29 1009.5
20260502232105 75 355 5.0 13.0 0.00 0.00 0.00 30 1009.4
20260502231602 75 346 5.0 13.0 0.00 0.00 0.00 30 1009.5
20260502231107 74 348 5.0 14.0 0.00 0.00 0.00 31 1009.5
20260502230603 74 355 6.0 14.0 0.00 0.00 0.00 31 1009.5
20260502230100 74 46 7.0 14.0 0.00 0.00 0.00 30 1009.6
20260502225844 74 9 6.0 14.0 0.00 0.00 0.00 30 1009.6
20260502225056 74 345 5.0 14.0 0.00 0.00 0.00 30 1009.7
20260502224616 75 5 5.0 12.0 0.00 0.00 0.00 32 1009.8
20260502224612 75 17 5.0 12.0 0.00 0.00 0.00 32 1009.7
20260502223811 75 348 5.0 9.0 0.00 0.00 0.00 32 1009.7
20260502223049 75 340 4.0 11.0 0.00 0.00 0.00 33 1009.7
20260502222549 75 51 5.0 13.0 0.00 0.00 0.00 34 1009.8
20260502222049 75 314 5.0 13.0 0.00 0.00 0.00 33 1009.8
20260502221805 75 339 6.0 16.0 0.00 0.00 0.00 33 1009.9
20260502221049 75 355 7.0 16.0 0.00 0.00 0.00 34 1009.9
20260502220548 76 338 6.0 12.0 0.00 0.00 0.00 34 1010.1
20260502220048 76 327 6.0 12.0 0.00 0.00 0.00 34 1010.2
20260502215545 75 345 6.0 12.0 0.00 0.00 0.00 35 1010.1
20260502215044 75 355 6.0 12.0 0.00 0.00 0.00 35 1009.9
20260502214545 75 319 5.0 12.0 0.00 0.00 0.00 35 1010.1
20260502214044 75 336 6.0 12.0 0.00 0.00 0.00 35 1009.9
20260502213544 75 5 7.0 12.0 0.00 0.00 0.00 36 1010.1
20260502213044 76 330 6.0 12.0 0.00 0.00 0.00 35 1010.2
20260502212835 76 348 4.0 12.0 0.00 0.00 0.00 36 1010.3
20260502212044 76 34 5.0 14.0 0.00 0.00 0.00 36 1010.4
20260502211544 76 20 6.0 14.0 0.00 0.00 0.00 36 1010.5
20260502211044 76 341 7.0 15.0 0.00 0.00 0.00 36 1010.3
20260502210543 76 294 7.0 15.0 0.00 0.00 0.00 36 1010.5
20260502210059 76 0 6.0 15.0 0.00 0.00 0.00 35 1010.5
20260502205548 76 5 5.0 11.0 0.00 0.00 0.00 37 1010.6
20260502205042 76 24 5.0 12.0 0.00 0.00 0.00 37 1010.7
20260502204816 75 348 4.0 11.0 0.00 0.00 0.00 38 1010.7
20260502204041 75 5 5.0 12.0 0.00 0.00 0.00 38 1011.0
20260502203539 75 34 4.0 12.0 0.00 0.00 0.00 38 1011.1
20260502203336 75 5 4.0 11.0 0.00 0.00 0.00 38 1011.0
20260502202537 74 21 5.0 14.0 0.00 0.00 0.00 39 1011.1
20260502202039 73 312 5.0 14.0 0.00 0.00 0.00 40 1011.3
20260502201536 73 32 5.0 12.0 0.00 0.00 0.00 39 1011.3
20260502201320 72 355 5.0 12.0 0.00 0.00 0.00 41 1011.3
20260502200536 72 342 4.0 11.0 0.00 0.00 0.00 40 1011.3
20260502200036 72 40 3.0 9.0 0.00 0.00 0.00 41 1011.4
20260502195823 72 313 4.0 8.0 0.00 0.00 0.00 41 1011.4
20260502195045 72 9 4.0 10.0 0.00 0.00 0.00 40 1011.5
20260502194536 72 27 4.0 10.0 0.00 0.00 0.00 41 1011.6
20260502194031 72 12 4.0 11.0 0.00 0.00 0.00 41 1011.5
20260502193524 72 344 4.0 11.0 0.00 0.00 0.00 41 1011.6
20260502193019 71 34 4.0 10.0 0.00 0.00 0.00 43 1011.7
20260502192534 71 340 4.0 10.0 0.00 0.00 0.00 42 1011.7
20260502192529 71 5 4.0 9.0 0.00 0.00 0.00 42 1011.7
20260502191740 71 43 4.0 10.0 0.00 0.00 0.00 43 1011.7
20260502191003 71 32 4.0 9.0 0.00 0.00 0.00 44 1011.8
20260502190719 71 17 3.0 9.0 0.00 0.00 0.00 44 1011.8
20260502185946 71 348 3.0 7.0 0.00 0.00 0.00 44 1011.8
20260502185715 70 36 3.0 9.0 0.00 0.00 0.00 45 1011.8
20260502184929 69 26 3.0 9.0 0.00 0.00 0.00 46 1011.9
20260502184432 69 9 3.0 9.0 0.00 0.00 0.00 47 1012.0
20260502183920 69 50 3.0 9.0 0.00 0.00 0.00 48 1012.0
20260502183411 68 348 2.0 9.0 0.00 0.00 0.00 47 1012.0
20260502182910 68 28 3.0 9.0 0.00 0.00 0.00 49 1012.1
20260502182908 68 47 3.0 9.0 0.00 0.00 0.00 48 1012.1
20260502182133 67 22 4.0 9.0 0.00 0.00 0.00 51 1012.2
20260502181356 67 311 4.0 9.0 0.00 0.00 0.00 51 1012.2
20260502180857 67 5 4.0 9.0 0.00 0.00 0.00 50 1012.2
20260502180356 66 322 3.0 8.0 0.00 0.00 0.00 51 1012.2
20260502170343 61 44 2.0 4.0 0.00 0.00 0.00 60 1012.3
20260502164339 60 323 2.0 4.0 0.00 0.00 0.00 63 1012.3
20260502164122 60 345 2.0 4.0 0.00 0.00 0.00 63 1012.4
20260502163337 59 85 2.0 4.0 0.00 0.00 0.00 63 1012.3
20260502162838 59 103 1.0 4.0 0.00 0.00 0.00 63 1012.3
20260502162619 59 109 1.0 3.0 0.00 0.00 0.00 64 1012.3
20260502161841 58 113 1.0 3.0 0.00 0.00 0.00 65 1012.3
20260502161635 58 142 0.0 3.0 0.00 0.00 0.00 65 1012.3
20260502160339 57 143 0.0 0.0 0.00 0.00 0.00 66 1012.2
20260502152337 55 143 0.0 2.0 0.00 0.00 0.00 69 1012.1
20260502151836 55 143 0.0 2.0 0.00 0.00 0.00 69 1012.2
20260502151341 55 143 0.0 1.0 0.00 0.00 0.00 68 1012.1
20260502150824 55 143 0.0 1.0 0.00 0.00 0.00 69 1012.2
20260502150318 55 143 0.0 1.0 0.00 0.00 0.00 69 1012.1
20260502123553 51 311 0.0 0.0 0.00 0.00 0.00 78 1011.1
20260502123548 51 311 0.0 2.0 0.00 0.00 0.00 77 1011.1
20260502123543 50 311 0.0 0.0 0.00 0.00 0.00 78 1011.4
20260502122004 51 311 0.0 2.0 0.00 0.00 0.00 76 1011.1
20260502121456 52 311 0.0 0.0 0.00 0.00 0.00 75 1011.1
20260502121219 52 309 0.0 0.0 0.00 0.00 0.00 75 1011.3
20260502120447 52 309 0.0 0.0 0.00 0.00 0.00 75 1011.3
20260502115707 53 309 0.0 0.0 0.00 0.00 0.00 74 1011.3
20260502114940 53 309 0.0 0.0 0.00 0.00 0.00 74 1011.1
20260502113914 53 309 0.0 0.0 0.00 0.00 0.00 72 1011.3
20260502113408 53 309 0.0 0.0 0.00 0.00 0.00 72 1011.3
20260502112905 53 309 0.0 0.0 0.00 0.00 0.00 72 1011.1
20260502112357 53 309 0.0 1.0 0.00 0.00 0.00 72 1011.3
20260502111850 54 309 0.0 2.0 0.00 0.00 0.00 72 1011.3
20260502111622 54 309 1.0 3.0 0.00 0.00 0.00 72 1011.3
20260502110838 54 309 1.0 3.0 0.00 0.00 0.00 72 1011.3
20260502110614 54 310 1.0 2.0 0.00 0.00 0.00 72 1011.4
20260502105830 54 310 1.0 3.0 0.00 0.00 0.00 72 1011.4
20260502105822 54 310 1.0 3.0 0.00 0.00 0.00 72 1011.5
20260502105602 54 310 1.0 3.0 0.00 0.00 0.00 72 1011.5
20260502105334 54 310 1.0 3.0 0.00 0.00 0.00 72 1011.5
20260502104833 54 311 0.0 2.0 0.00 0.00 0.00 72 1011.4
20260502104619 54 311 0.0 1.0 0.00 0.00 0.00 71 1011.3
20260502103831 54 311 0.0 0.0 0.00 0.00 0.00 71 1011.4
20260502103552 54 311 0.0 0.0 0.00 0.00 0.00 70 1011.4
20260502102830 54 311 0.0 1.0 0.00 0.00 0.00 69 1011.4
20260502102331 53 311 1.0 3.0 0.00 0.00 0.00 69 1011.4
20260502101833 53 311 1.0 3.0 0.00 0.00 0.00 68 1011.4
20260502101331 54 328 0.0 2.0 0.00 0.00 0.00 66 1011.4
20260502100830 54 330 0.0 0.0 0.00 0.00 0.00 66 1011.4
20260502100330 54 330 0.0 0.0 0.00 0.00 0.00 65 1011.4
20260502090829 57 330 0.0 0.0 0.00 0.00 0.00 62 1011.5
20260502090328 57 330 0.0 0.0 0.00 0.00 0.00 61 1011.6
20260502071248 62 345 3.0 9.0 0.00 0.00 0.00 59 1011.6
20260502070748 62 336 3.0 7.0 0.00 0.00 0.00 60 1011.9
20260502070247 62 311 4.0 7.0 0.00 0.00 0.00 59 1012.2
20260502070034 63 275 3.0 7.0 0.00 0.00 0.00 57 1012.4
20260502065245 63 229 3.0 9.0 0.00 0.00 0.00 56 1012.4
20260502064744 63 255 4.0 9.0 0.00 0.00 0.00 55 1012.4
20260502064242 63 259 4.0 9.0 0.00 0.00 0.00 53 1012.4
20260502063756 63 261 4.0 9.0 0.00 0.00 0.00 51 1012.4
20260502063248 63 260 3.0 7.0 0.00 0.00 0.00 52 1012.3
20260502063023 63 265 4.0 8.0 0.00 0.00 0.00 52 1012.1
20260502062239 63 273 3.0 8.0 0.00 0.00 0.00 52 1012.0
20260502061740 63 298 3.0 8.0 0.00 0.00 0.00 51 1011.7
20260502061242 63 309 2.0 5.0 0.00 0.00 0.00 51 1011.8
20260502060740 63 330 2.0 6.0 0.00 0.00 0.00 51 1011.7
20260502060242 63 317 3.0 6.0 0.00 0.00 0.00 50 1011.7
20260502055733 63 314 2.0 5.0 0.00 0.00 0.00 50 1011.5
20260502055227 64 334 2.0 6.0 0.00 0.00 0.00 49 1011.5
20260502054721 64 350 3.0 6.0 0.00 0.00 0.00 49 1011.4
20260502054455 64 349 3.0 8.0 0.00 0.00 0.00 48 1011.5
20260502053709 64 342 3.0 9.0 0.00 0.00 0.00 48 1011.4
20260502053204 65 348 3.0 10.0 0.00 0.00 0.00 48 1011.4
20260502052926 65 346 4.0 10.0 0.00 0.00 0.00 48 1011.4
20260502052204 65 355 5.0 11.0 0.00 0.00 0.00 47 1011.3
20260502051922 65 350 4.0 11.0 0.00 0.00 0.00 47 1011.3
20260502051211 66 355 4.0 10.0 0.00 0.00 0.00 46 1011.3
20260502050709 66 336 5.0 11.0 0.00 0.00 0.00 46 1011.4
20260502050209 66 340 5.0 11.0 0.00 0.00 0.00 46 1011.4
20260502045705 66 355 3.0 10.0 0.00 0.00 0.00 45 1011.3
20260502045210 66 347 3.0 9.0 0.00 0.00 0.00 44 1011.3
20260502044705 66 350 3.0 9.0 0.00 0.00 0.00 44 1011.4
20260502044645 67 342 3.0 9.0 0.00 0.00 0.00 44 1011.4
20260502044424 67 342 3.0 9.0 0.00 0.00 0.00 44 1011.4
20260502043926 67 332 3.0 9.0 0.00 0.00 0.00 43 1011.3
20260502043211 67 328 4.0 10.0 0.00 0.00 0.00 43 1011.3
20260502042155 67 350 5.0 12.0 0.00 0.00 0.00 42 1010.9
20260502041655 68 294 7.0 13.0 0.00 0.00 0.00 42 1010.7
20260502041155 68 344 8.0 15.0 0.00 0.00 0.00 41 1010.7
20260502040656 68 350 8.0 15.0 0.00 0.00 0.00 41 1010.6
20260502040155 68 336 7.0 14.0 0.00 0.00 0.00 41 1010.4
20260502035656 68 322 5.0 13.0 0.00 0.00 0.00 41 1010.2
20260502035429 68 346 3.0 10.0 0.00 0.00 0.00 40 1010.2
20260502034929 68 328 4.0 10.0 0.00 0.00 0.00 40 1010.1
20260502034148 69 286 6.0 15.0 0.00 0.00 0.00 40 1010.1
20260502033643 69 328 6.0 15.0 0.00 0.00 0.00 39 1009.9
20260502033413 69 318 5.0 11.0 0.00 0.00 0.00 39 1010.3